Regional Weather Roundup
Issued by NWS

Home | Current Version | Previous Version | Text Only | Print | Product List | Glossary Off
Versions: 1 2 3 4 5 6 7 8 9 10 11 12 13 14 15 16 17 18 19 20 21 22 23 24 25 26 27 28 29 30 31 32 33 34 35 36 37 38 39 40 41 42 43 44 45 46 47 48 49 50

000
ASUS43 KMPX 220901
RWRMN
WEATHER ROUNDUP FOR MINNESOTA
NATIONAL WEATHER SERVICE TWIN CITIES/CHANHASSEN MN
400 AM CDT FRI AUG 22 2014


NOTE: "FAIR" INDICATES FEW OR NO CLOUDS BELOW 12,000 FEET WITH NO
SIGNIFICANT WEATHER AND/OR OBSTRUCTIONS TO VISIBILITY. N/A MEANS
CURRENT SKY AND/OR WEATHER CONDITIONS ARE NOT AVAILABLE.

MNZ060>063-068>070-221000-
   Twin Cities Metro

CITY           SKY/WX    TMP DP  RH WIND       PRES   REMARKS
TWIN CITIES    MOCLDY    71  71 100 NW6       29.86R
ST PAUL        CLOUDY    71  71 100 N8        29.86R
CRYSTAL        FOG       72  69  90 N6        29.86R VSB 1/2
BLAINE         FOG       72  72 100 NW6       29.87R VSB 1/4
LAKEVILLE      PTCLDY    70  70 100 W3        29.88R FOG
EDEN PRAIRIE   CLEAR     70  69  97 NW3       29.87R FOG
SOUTH ST PAUL  MOCLDY    72  71  95 NW3       29.86R FOG
LAKE ELMO      CLOUDY    72  72 100 NW3       29.87S FOG
$$
MNZ001>005-007-008-013>017-022>024-027-028-221000-
   Northwest Minnesota

CITY           SKY/WX    TMP DP  RH WIND       PRES   REMARKS
BEMIDJI        CLOUDY    66  65  97 E3        29.92S FOG
HALLOCK        MOCLDY    66  64  94 N7        29.91R
ROSEAU         CLEAR     66  61  82 NE3       29.92S
WARROAD        CLOUDY    66  64  94 E5        29.93R
THIEF RVR FALL CLOUDY    66  64  94 CALM      29.91R
CROOKSTON      FOG       66  66 100 CALM      29.91R VSB 1/4
FOSSTON        CLOUDY    64  63  94 CALM      29.92R
DETROIT LAKES  CLOUDY    68  66  94 CALM      29.92S FOG
MOORHEAD       FOG       66  66 100 CALM      29.90R VSB 1/2
PARK RAPIDS    CLOUDY    67  67 100 E3        29.92R FOG
MAHNOMEN       PTSUNNY   66  66  98 CALM      29.90S
$$
MNZ006-009>011-018-025>026-221000-
   North Central Minnesota

CITY           SKY/WX    TMP DP  RH WIND       PRES   REMARKS
BAUDETTE       CLOUDY    65  62  90 E5        29.93R
FLAG ISLAND    CLOUDY    66  64  94 CALM      29.92S
INTL FALLS     CLOUDY    64  61  90 CALM      29.94S
WASKISH        CLOUDY    66  64  94 CALM      29.92S
BIG FORK       MOCLDY    64  63  94 CALM      29.94S
LONGVILLE      CLOUDY    64  64 100 CALM      29.91F FOG
GRAND RAPIDS   CLOUDY    63  61  94 CALM      29.93S
CRANE LAKE     CLOUDY    61  59  94 CALM      29.96S
ORR            CLOUDY    63  57  82 CALM      29.92S
COOK           CLOUDY    63  61  94 CALM      29.94S
WALKER         CLOUDY    66  65  96 CALM      29.91F
$$
MNZ012-019>021-037-221000-
   Northeast Minnesota

CITY           SKY/WX    TMP DP  RH WIND       PRES   REMARKS
DULUTH         FOG       63  61  93 E3        29.92R VSB 1/2
ELY            CLOUDY    61  59  94 NE3       29.95R
HIBBING        CLOUDY    65  60  84 CALM      29.93S
EVELETH        CLOUDY    63  61  94 CALM      29.93S
DULUTH HARBOR  CLOUDY    61  61 100 NE17      29.91S
TWO HARBORS    CLOUDY    61  55  82 NE6       29.90S HAZE
SILVER BAY     CLOUDY    59  59 100 NE6       29.91S
GRAND MARAIS     N/A     61  59  93 E7        29.93S
G MARAIS ARPRT FOG       59  55  88 NE3       29.97S VSB 3/4
$$
MNZ029>031-032-039>041-046>048-054>057-064-221000-
   West Central Minnesota

CITY           SKY/WX    TMP DP  RH WIND       PRES   REMARKS
FERGUS FALLS   PTCLDY    66  66 100 CALM      29.89S FOG
WHEATON        FOG       64  63  94 CALM      29.91R VSB 1/2
MORRIS         FOG       66  66 100 SE3       29.90R VSB<1/4
ALEXANDRIA     CLOUDY    69  67  93 CALM      29.93R
ELBOW LAKE     CLOUDY    68  67  99 SE5       29.90R
WADENA         CLOUDY    66  66 100 NE3       29.91S FOG
GLENWOOD       MOCLDY    70  68  94 CALM      29.92R FOG
APPLETON       FOG       68  66  94 CALM      29.89R VSB 3/4
BENSON         CLOUDY    66  64  94 CALM      29.90S FOG
ORTONVILLE     CLEAR     66  64  94 CALM      29.90R FOG
MADISON        CLEAR     70  68  94 CALM      29.90S
WILLMAR        FOG       72  70  94 NE3       29.90F VSB 1/4
$$
MNZ033>034-036-042>043-049>051-058-059-221000-
   Central Minnesota

CITY           SKY/WX    TMP DP  RH WIND       PRES   REMARKS
ST CLOUD       CLOUDY    71  69  93 NW3       29.89R FOG
SAUK CENTRE    PTSUNNY   67  67  98 CALM      29.91R FOG
PAYNESVILLE    FOG       66  67 100 NW3       29.91S VSB 1/2
AITKIN         HAZE      64  59  82 CALM      29.90S VSB 1
PINE RIVER     CLOUDY    66  66 100 CALM      29.95S
BRAINERD       CLOUDY    63  63 100 NE3       29.92R FOG
STAPLES        CLOUDY    66  64  94 CALM      29.92R FOG
LONG PRAIRIE   FOG       66  66 100 CALM      29.93R VSB 1/4
LITTLE FALLS   CLOUDY    66  64  94 CALM      29.91R FOG
LITCHFIELD     FOG       72  72 100 N6        29.90S VSB 1/4
BUFFALO        FOG       70  68  93 CALM      29.89S VSB 1/2
MAPLE LAKE     CLOUDY    72  71  98 N6        29.90S FOG
$$
MNZ037-044-045-052-053-221000-
   East Central Minnesota

CITY           SKY/WX    TMP DP  RH WIND       PRES   REMARKS
PRINCETON      CLOUDY    68  66  94 N6        29.90R FOG
MORA           CLOUDY    61  61 100 CALM      29.91S FOG
CAMBRIDGE      HAZE      66  59  77 NW7       29.88R VSB 1
RUSH CITY      CLOUDY    64  63  96 N3        29.89R
MOOSE LAKE     CLOUDY    61  59  94 NE3       29.89S FOG
HINCKLEY       CLOUDY    63  63 100 N6        29.90R FOG
CLOQUET        FOG       61  61 100 CALM      29.92R VSB 1/2
MCGREGOR       CLOUDY    63  61  94 N3        29.92S
$$
MNZ071>073-080-081-089-090-097-098-221000-
   Southwest Minnesota

CITY           SKY/WX    TMP DP  RH WIND       PRES   REMARKS
MONTEVIDEO     LGT RAIN  70  68  94 N3        29.90S VSB 1/4
GRANITE FALLS  FOG       68  68 100 CALM      29.91R VSB 1/4
CANBY          CLEAR     67  65  96 W3        29.91R
MARSHALL       CLEAR     64  63  94 W6        29.90R
REDWOOD FALLS  FOG       71  71 100 CALM      29.90R VSB 1/2
OLIVIA         FOG       70  68  94 CALM      29.89R VSB 1/2
PIPESTONE      CLEAR     66  64  94 CALM      29.93R
WINDOM         CLEAR     68  66  94 CALM      29.92R
WORTHINGTON    PTCLDY    66   9  10 CALM      29.94R
JACKSON        PTCLDY    68  64  88 CALM      29.92R
TRACY          CLEAR     69  68  94 CALM      29.92R
SLAYTON        MOCLDY    66  66  98 CALM      29.94R
$$
MNZ065>067-074>077-082>085-091>093-221000-
   South Central Minnesota

CITY           SKY/WX    TMP DP  RH WIND       PRES   REMARKS
MANKATO        CLOUDY    72  68  88 N6        29.89R VSB 1/4
NEW ULM        FOG       72  72 100 CALM      29.90R VSB 1/4
ST JAMES       CLOUDY    70  66  88 CALM      29.91R FOG
FAIRMONT       MOCLDY    68  63  83 MISG      29.89F
GLENCOE        FOG       71  68  91 CALM      29.89R VSB 1/4
FARIBAULT      CLOUDY    75  70  83 CALM      29.89R HAZE
OWATONNA       FOG       73  72  94 CALM      29.90R VSB 1/4
WASECA         FOG       72  68  88 CALM      29.91R VSB 1/4
ALBERT LEA     CLEAR     73  73 100 SW1       29.89R
$$
MNZ078>079-086>088-094>096-221000-
   Southeast Minnesota

CITY           SKY/WX    TMP DP  RH WIND       PRES   REMARKS
ROCHESTER      CLEAR     71  69  93 S6        29.90R FOG
RED WING       FOG       73  72  94 W5        29.84R VSB 1/2
STANTON        FOG       73  71  93 NW6       29.87R VSB 1/2
DODGE CENTER   CLEAR     72  72 100 W6        29.90R FOG
WINONA         PTCLDY    73  72  94 CALM      29.86R
AUSTIN         CLEAR     70  70 100 S3        29.90R
PRESTON        CLEAR     70  71 100 S8        29.90R FOG
$$
ABBREVIATIONS USED IN REMARKS
   TC - TEMPERATURES IN CELSIUS
  WCI - WIND CHILL INDEX
   HX - HEAT INDEX
  VSB - VISIBILITY
$$


USA.gov is the U.S. government's official web portal to all federal, state and local government web resources and services.